User: anonymous   Login
Location: Caltech
(34.1382°N, 118.1253°W)
Time: 14:53:27
(UTC-07:00)
Language:

Lacrosse 5 rocket - Orbit

View from above orbital plane
View from above orbital plane
View from above satellite
View from above satellite

Ground track
Ground track

The orbit data is extracted from the following two-line orbital elements,

1 28647U 05016B   16161.85063289 0.00001600  00000-0  96451-4 0    04
2 28647  56.9950  86.6499 0120921  18.0445 341.9554 15.04324478    01
Epoch (UTC): 09 June 2016 20:24:54
Eccentricity: 0.0120921
inclination: 56.9950°
perigee height: 470 km
apogee height: 637 km
right ascension of ascending node: 86.6499°
argument of perigee: 18.0445°
revolutions per day: 15.04324478
mean anomaly at epoch: 341.9554°
orbit number at epoch: 0

The dashed part of the orbit path shows where the satellite is in the earth's shadow,  

DLR